This demonstration page uses our WeatherBlox Daily Observations layout. Learn more.

Left ArrowRight Arrow

Hourly Observations for June 25, 2021

Temp ( °F °C ) Dew Point ( °F °C ) Humidity (%) Winds ( mph kmh ) Pressure ( in mb ) Visibility ( mi km ) Precip ( " mm )
12:53 am 00:53 Clear 76 24.4 63 17.2 64 64 VRB 5 7 30.07 1018 10 16 N/A
1:53 am 01:53 Mostly Cloudy with Light Rain 74 23.3 64 17.8 71 71 N N/A 30.09 1019 10 16 0.00 0.00
2:53 am 02:53 Cloudy 76 24.4 63 17.2 64 64 VRB 5 7 30.09 1019 10 16 0.00 0.00
3:53 am 03:53 Cloudy 76 24.4 63 17.2 64 64 VRB 6 9 30.08 1019 10 16 N/A
4:53 am 04:53 Clear 75 23.9 64 17.8 69 69 VRB 5 7 30.08 1019 10 16 N/A
5:53 am 05:53 Partly Cloudy 75 23.9 64 17.8 69 69 VRB 3 6 30.08 1019 8 13 N/A
6:53 am 06:53 Cloudy 74 23.3 65 18.3 74 74 N N/A 30.07 1018 10 16 N/A
7:53 am 07:53 Mostly Sunny 74 23.3 65 18.3 74 74 N N/A 30.08 1019 10 16 N/A
8:53 am 08:53 Partly Cloudy 75 23.9 66 18.9 74 74 VRB 5 7 30.08 1019 10 16 N/A
9:53 am 09:53 Partly Cloudy 76 24.4 66 18.9 72 72 SSW 8 13 30.10 1019 10 16 N/A
10:53 am 10:53 Cloudy 76 24.4 66 18.9 72 72 VRB 7 11 30.10 1019 10 16 N/A
11:53 am 11:53 Cloudy 76 24.4 67 19.4 74 74 VRB 7 11 30.10 1019 10 16 N/A
12:53 pm 12:53 Cloudy 77 25 68 20 74 74 VRB 5 7 30.09 1019 10 16 N/A
1:05 pm 13:05 Cloudy with Haze 78 25.6 68 20 71 71 VRB 6 9 30.07 1018 2 2 N/A
1:18 pm 13:18 Cloudy 77 25 68 20 74 74 VRB 6 9 30.07 1018 10 16 N/A
1:53 pm 13:53 Cloudy 78 25.6 68 20 71 71 VRB 6 9 30.07 1018 10 16 N/A
2:53 pm 14:53 Cloudy 79 26.1 69 20.6 72 72 VRB 5 7 30.05 1018 10 16 N/A
3:17 pm 15:17 Cloudy 80 26.7 69 20.6 69 69 VRB 6 9 30.03 1017 10 16 N/A
3:53 pm 15:53 Cloudy 81 27.2 70 21.1 69 69 VRB 7 11 30.04 1017 10 16 N/A
4:53 pm 16:53 Cloudy 82 27.8 70 21.1 67 67 VRB 7 11 30.03 1017 10 16 N/A
5:53 pm 17:53 Cloudy 81 27.2 70 21.1 69 69 VRB 5 7 30.02 1017 10 16 0.00 0.00
6:53 pm 18:53 Cloudy 81 27.2 70 21.1 69 69 VRB 6 9 30.00 1016 10 16 0.00 0.00
7:53 pm 19:53 Sunny 81 27.2 70 21.1 69 69 VRB 5 7 29.97 1015 10 16 N/A
8:53 pm 20:53 Sunny 80 26.7 70 21.1 71 71 VRB 3 6 29.97 1015 10 16 N/A
9:53 pm 21:53 Clear with Light Rain 79 26.1 69 20.6 72 72 VRB 5 7 29.98 1015 8 13 0.00 0.00
10:53 pm 22:53 Partly Cloudy 79 26.1 69 20.6 72 72 VRB 3 6 30.01 1016 10 16 0.00 0.00
11:53 pm 23:53 Clear 77 25 69 20.6 77 77 VRB 5 7 30.02 1017 10 16 N/A

Powered by AerisWeather